Regional Weather Roundup
Issued by NWS

Home | Current Version | Previous Version | Text Only | Print | Product List | Glossary On
Versions: 1 2 3 4 5 6 7 8 9 10 11 12 13 14 15 16 17 18 19 20 21 22 23 24 25 26 27 28 29 30 31 32 33 34 35 36 37 38 39 40 41 42 43 44 45 46 47 48 49 50
000
ASUS44 KFWD 160115
RWRTX
NORTH TEXAS HOURLY WEATHER ROUNDUP
NATIONAL WEATHER SERVICE FORT WORTH TX
700 PM CST THU NOV 15 2018

NOTE: "FAIR" INDICATES FEW OR NO CLOUDS BELOW 12,000 FEET WITH NO
SIGNIFICANT WEATHER AND/OR OBSTRUCTIONS TO VISIBILITY.

TXZ118-119-160200-
DALLAS/FORT WORTH METROPLEX

CITY           SKY/WX    TMP DP  RH WIND       PRES   REMARKS
DFW AIRPORT    MOCLDY    54  37  52 S8        30.12R
DALLAS LOVE    MOCLDY    56  37  49 S10       30.14R
FTW MEACHAM    FAIR      52  38  58 SE9       30.12R
DAL-EXECUTIVE  FAIR      52  36  54 S7        30.13R
FTW-ALLIANCE   MOCLDY    54  38  54 S12       30.12R
FTW-NAS-JRB    MOCLDY    54  37  52 S8        30.13R
FTW-SPINKS     CLEAR     52  37  58 S6        30.15R
ARLINGTON      FAIR      54  39  57 S9        30.14R
GRAND PRAIRIE  FAIR      55  36  50 S7        30.15R
ADDISON        CLEAR     55  36  47 S7        30.14R
MESQUITE       CLEAR     37  36  93 SE7       30.15R WCI  32
LANCASTER      FAIR      50  36  58 S3        30.16R
$$

TXZ091>094-102>105-117-120-121-131>134-160200-
NORTH CENTRAL TEXAS

CITY           SKY/WX    TMP DP  RH WIND       PRES   REMARKS
SHRMAN/DENISON FAIR      52  36  53 S9        30.12R
GAINESVILLE    FAIR      52  34  51 S6        30.12S
BOWIE          FAIR      54  33  45 S5        30.09S
BRIDGEPORT     FAIR      56  32  40 S6        30.12S
DECATUR        FAIR      59  32  35 S5        30.10S
DENTON         FAIR      51  37  58 S8        30.11R
MCKINNEY       FAIR      51  37  58 S8        30.13R
BONHAM         FAIR      50  34  54 S10       30.13R
GREENVILLE     FAIR      50  36  57 S6        30.15S
ROCKWALL       FAIR      54  38  55 S6        30.14S
TERRELL        FAIR      50  34  54 S3        30.16R
WAXAHACHIE     FAIR      50  39  65 S5        30.17R
CLEBURNE       FAIR      54  37  54 S9        30.16R
GRANBURY       FAIR      55  37  51 S5        30.14R
$$

TXZ083>090-098>101-113>116-127>130-139>142-154-155-160200-
WESTERN NORTH TEXAS

CITY           SKY/WX    TMP DP  RH WIND       PRES   REMARKS
WICHITA FALLS  FAIR      49  36  61 S12       30.07R
WF-KICKAPOO    FAIR      54  37  51 S12       30.10R
VERNON         FAIR      55  38  52 S9        30.07R
ABILENE        FAIR      54  36  50 S8        30.13R
ABILENE-DYESS  FAIR      48  35  59 S3        30.12R
GRAHAM         FAIR      55  35  46 CALM      30.09S
BRECKENRIDGE   FAIR      58  31  35 S8        30.11S
CISCO          FAIR      55  32  41 S5        30.13R
EASTLAND       FAIR      44  31  59 CALM      30.13R
RANGER         FAIR      54  32  43 S6        30.14R
MINERAL WELLS  FAIR      57  33  40 S9        30.10R
STEPHENVILLE   FAIR      54  33  45 S3        30.16R
COMANCHE       FAIR      54  34  46 SW6       30.15R
BROWNWOOD      FAIR      50  36  57 CALM      30.15R
COLEMAN        FAIR      55  30  38 S3        30.15R
BRADY          FAIR      54  30  40 SW6       30.16R
$$

TXZ143>147-156>162-174-175-160200-
CENTRAL TEXAS

CITY           SKY/WX    TMP DP  RH WIND       PRES   REMARKS
WACO           FAIR      53  39  59 S9        30.17R
WACO-TSTC      CLEAR     54  37  54 SE7       30.17R
WACO-MCGREGOR  FAIR      50  41  71 S7        30.18R
HILLSBORO      FAIR      52  40  62 SE9       30.16R
CORSICANA      HAZE      51  35  54 S9        30.18R VSB<1/4
MEXIA          FAIR      49  35  56 S7        30.18R
HEARNE         FAIR     N/A N/A N/A CALM      30.22R
CAMERON        FAIR      52  35  51 S5        30.20R
TEMPLE         FAIR      52  36  54 S12       30.19R
KILLEEN        FAIR      51  37  59 S7        30.16R
KILLEEN-SKYLRK FAIR      52  36  54 S7        30.18R
FORT HOOD      FAIR      52  36  55 SE6       30.14R
GATESVILLE     FAIR      52  37  58 SE6       30.18R
HAMILTON       FAIR      53  36  52 S6        30.17R
LAMPASAS       FAIR      49  36  60 S3        30.16R
$$

TXZ095>097-106>112-122>126-135>138-148>153-164>167-160200-
EAST TEXAS

CITY           SKY/WX    TMP DP  RH WIND       PRES   REMARKS
PARIS          FAIR      46  33  60 S6        30.15R
SULPHUR SPRNGS FAIR      52  32  47 S5        30.17R
MOUNT PLEASANT FAIR      46  34  62 CALM      30.18R
GILMER         FAIR      44  35  70 S3        30.17R
MINEOLA        FAIR      50  34  53 S3        30.16S
TYLER          FAIR      45  32  60 S6        30.17R
LONGVIEW       FAIR      43  38  82 S7        30.17R WCI  39
MARSHALL       FAIR      39  36  88 CALM      30.20R
ATHENS         FAIR      43  37  81 S3        30.17R
PALESTINE      FAIR      48  36  63 S3        30.21R
JACKSONVILLE   FAIR      48  36  61 S6        30.20S
HENDERSON      FAIR      46  35  65 MISG      30.20R
NACOGDOCHES      N/A     42  38  85 CALM      30.21R
LUFKIN         FAIR      44  40  85 CALM      30.22R
$$

SUPPLEMENTAL OBSERVATIONS (NWS FORT WORTH AREA)

CITY           SKY/WX    TMP DP  RH WIND       PRES   REMARKS
DENISON DAM      N/A     54  34  47 S7          N/A
CADDO GRASSLND   N/A     48  36  61 S6          N/A
LBJ GRASSLAND    N/A     55  32  41 SE6         N/A
POSSUM KINGDOM   N/A     57  32  38 S7          N/A
GRANBURY         N/A     54  36  50 S6          N/A
COMANCHE         N/A     55  32  41 SW6         N/A
MCGREGOR         N/A     52  37  58 S7          N/A
TEMPLE           N/A     54  34  47 SE3         N/A
LAKE LIMESTONE   N/A     52  34  50 S3          N/A
ATHENS           N/A     48  36  61 SE2         N/A
PALESTINE        N/A     45  36  70 S1          N/A
$$

SUPPLEMENTAL OBSERVATIONS (NWS NORMAN AREA)

CITY           SKY/WX    TMP DP  RH WIND       PRES   REMARKS
GOODLETT         N/A     54  34  46 S9        30.06R
ODELL            N/A     56  39  52 S13       30.07R
CROWELL          N/A     54  38  54 SW6       30.08R
KNOX CITY        N/A     50  38  65 S10       30.10R
SEYMOUR          N/A     54  39  56 S7        30.09S
MILLERS CREEK    N/A     52  39  62 SW7         N/A
$$

SUPPLEMENTAL OBSERVATIONS (NWS SAN ANGELO AREA)

CITY           SKY/WX    TMP DP  RH WIND       PRES   REMARKS
WEINERT          N/A     58  35  41 S10       30.10S
HASKELL          N/A     58  34  40 S9        30.11S
THROCKMORTON     N/A     53  35  50 SW5       30.12R
STAMFORD         N/A     52  39  60 S3        30.13R
CLYDE            N/A     54  33  45 S7        30.15R
HAMBY            N/A     54  34  47 SE3         N/A
IVIE RESERVOIR   N/A     54  32  43 S7          N/A
COLORADO BEND    N/A     54  34  47 S6          N/A
$$

SUPPLEMENTAL OBSERVATIONS (NWS SHREVEPORT AREA)

CITY           SKY/WX    TMP DP  RH WIND       PRES   REMARKS
TEXARKANA        N/A     39  36  87 CALM        N/A
LINDEN           N/A     45  36  70 S1          N/A
CADDO LAKE       N/A     36  32  87 CALM        N/A
LUFKIN           N/A     45  39  81 MISG        N/A
N SABINE NF      N/A     39  37  93 MISG        N/A
$$

SUPPLEMENTAL OBSERVATIONS ARE A COLLECTION OF AUTOMATED INSTRUMENTS
THAT ARE MAINTAINED BY A VARIETY OF FEDERAL AND STATE AGENCIES.
CERTAIN ELEMENTS...SUCH AS HUMIDITY VALUES AND SUSTAINED WIND
SPEEDS...MAY BE APPROXIMATED.




USA.gov is the U.S. government's official web portal to all federal, state and local government web resources and services.